Location: Bermeries
(50.2863°N, 3.7551°E)
Time: 19:36:36
(UTC+00:00)

Cosmos 1346 Rocket - Pass Details

Date: 23 May 2024
Orbit: 508 x 521 km, 81.2° (Epoch: 16 June)

Event Time Altitude Azimuth Distance (km) Brightness Sun altitude
Rises 00:38:37 0° 347° (NNW) 2,662 7.4 -18.0°
Reaches altitude 10° 00:40:46 10° 347° (NNW) 1,770 6.3 -17.9°
Maximum altitude 00:44:40 84° 261° (W) 533 2.6 -17.7°
Enters shadow 00:45:57 41° 175° (S) 771 3.1 -17.7°
